User: anonymous   Login
Location: Unspecified
(0.0000°N, 0.0000°E)
Time: 20:47:28
(UTC+02:00)
Language:

Landsat 4 - Orbit

View from above orbital plane
View from above orbital plane
View from above satellite
View from above satellite

Ground track
Ground track

The orbit data is extracted from the following two-line orbital elements,

1 13367U 82072A   16120.82714078  .00001526  00000-0  85864-4 0  9995
2 13367  98.1955 243.7990 0014099 161.2920 316.9546 15.14934819822424
Epoch (UTC): 29 April 2016 19:51:04
Eccentricity: 0.0014099
inclination: 98.1955°
perigee height: 511 km
apogee height: 531 km
right ascension of ascending node: 243.7990°
argument of perigee: 161.2920°
revolutions per day: 15.14934819
mean anomaly at epoch: 316.9546°
orbit number at epoch: 82242

The dashed part of the orbit path shows where the satellite is in the earth's shadow,  

DLR